Temperature
21 20 19 18 18 18 18 18 18 18 17 17 17 17 17 17 17 17 17 17 17 17 17 17 17 17 17 16 16 16 16 17 17 17 17 17 17 17 16 16 16 16 16
21 19 19 18 18 18 18 18 18 18 17 17 17 17 17 17 17 17 17 17 17 17 17 17 17 17 16 16 16 16 17 17 17 17 18 18 18 17 17 17 16 16 16
21 20 19 18 18 18 18 18 18 17 17 17 17 16 16 16 16 17 17 17 17 17 17 17 17 16 16 16 16 16 16 17 17 17 18 18 18 18 17 17 17 16 16
22 20 19 18 18 18 18 18 17 17 17 17 16 16 16 17 17 17 17 17 17 17 17 17 17 16 16 16 16 16 16 16 17 17 17 17 18 18 18 18 17 17 16
23 21 20 19 18 18 18 17 17 17 17 17 17 17 17 17 17 17 17 17 17 17 17 17 17 16 16 16 16 16 16 16 17 17 17 17 17 17 18 18 18 17 17
22 21 19 18 18 18 18 17 17 17 17 17 17 17 17 17 17 17 17 17 17 17 17 17 17 16 16 16 16 16 16 16 16 17 17 17 17 18 18 18 18 18 18
22 20 19 18 18 18 17 17 17 17 17 17 17 17 17 16 17 17 17 17 17 17 17 16 17 16 16 16 16 16 16 16 16 16 16 17 17 17 18 18 18 18 18
22 21 19 19 18 18 17 17 17 17 17 17 17 16 16 16 16 17 17 17 17 17 17 17 17 16 16 16 16 16 16 16 16 16 16 16 17 17 17 17 18 18 18
22 21 20 19 18 18 17 17 17 17 17 17 17 17 16 16 16 17 17 17 17 17 16 16 16 16 16 16 16 16 16 16 16 16 16 16 16 16 17 17 17 18 18
22 21 20 19 18 18 17 17 17 17 17 17 17 16 16 16 17 16 17 16 16 16 16 16 16 16 16 16 16 16 16 16 16 16 16 16 16 16 16 16 17 17 17
22 21 20 19 18 18 17 17 17 17 17 17 17 16 16 16 16 16 16 17 17 16 16 16 16 16 16 16 16 16 16 16 16 16 16 16 16 16 16 16 16 16 16
21 20 19 18 18 18 17 17 17 17 17 17 17 17 16 16 16 16 17 17 17 17 16 16 16 16 16 16 16 16 16 15 15 15 15 15 15 15 16 16 16 16 16
21 20 19 18 18 18 17 17 17 17 17 17 17 16 16 16 16 16 16 16 16 16 16 16 16 16 16 16 16 16 15 15 15 15 15 15 15 15 15 15 15 15 16
20 20 19 18 18 17 17 17 17 17 17 16 16 16 16 16 16 16 16 16 16 16 16 16 16 16 16 16 16 16 15 15 15 15 15 15 15 15 15 15 15 15 15
20 19 19 18 18 17 17 17 17 16 16 16 16 16 16 16 16 16 16 16 16 16 16 16 16 16 15 15 15 15 15 15 15 15 15 15 15 15 15 15 15 14 14
20 19 18 18 17 17 17 17 17 16 16 16 16 16 16 16 16 16 16 16 16 16 16 16 16 15 15 15 15 15 15 15 15 14 14 14 14 14 14 14 14 14 14
19 18 18 17 17 17 17 17 17 16 16 16 16 16 16 16 16 16 16 16 16 16 16 16 15 15 15 15 15 15 15 15 14 14 14 14 14 14 14 14 14 14 14
18 17 17 17 17 17 17 17 17 16 16 16 16 16 16 16 16 16 15 15 15 15 15 15 15 15 15 15 15 15 15 14 14 14 14 14 14 13 13 13 13 13 13
17 16 17 17 17 17 16 16 16 16 16 16 16 16 16 16 16 16 15 15 15 15 15 15 15 15 15 14 14 14 14 14 13 13 13 13 13 13 13 13 12 12 12
16 16 16 16 16 16 16 16 16 16 16 16 16 16 16 16 15 15 15 15 15 14 14 14 14 14 14 14 14 14 13 13 13 12 12 12 12 12 12 12 12 11 11
16 16 16 16 16 16 15 16 16 15 15 15 15 15 15 15 15 15 14 14 14 14 14 14 14 13 13 13 13 13 13 12 12 12 11 11 11 11 11 11 11 11 11
15 15 15 15 15 15 15 15 15 15 15 15 15 15 15 14 14 14 14 14 13 13 13 13 12 12 12 12 12 12 12 11 11 11 11 10 10 10 10 10 10 10 10
14 14 14 14 14 14 14 14 14 14 14 14 14 14 14 14 13 13 13 13 13 13 12 12 12 11 11 11 11 11 11 11 11 10 10 10 9 9 9 9 9 9 9
14 14 14 14 13 13 14 14 14 14 14 14 13 13 13 13 12 12 12 12 12 12 11 11 11 10 10 10 10 10 10 10 9 9 9 8 8 8 8 8 8 7 7
13 13 13 13 12 13 13 13 13 13 13 13 12 12 12 12 12 11 11 11 11 11 11 10 10 10 9 9 9 9 9 9 8 8 8 7 7 7 7 7 7 6 6
12 12 12 12 12 12 12 12 12 12 12 12 12 11 11 11 11 11 10 10 10 10 10 9 9 9 9 8 8 8 8 8 8 7 7 7 7 6 6 6 6 6 5
Wind_Speed
10 11 12 12 13 13 14 15 15 14 12 11 11 10 9 9 8 8 10 10 10 9 8 6 6 6 5 5 5 5 6 5 4 3 4 4 4 3 3 3 3 4 4
11 11 12 12 13 13 14 14 15 15 14 11 10 8 8 8 8 7 8 10 10 10 9 7 7 7 5 6 5 5 5 5 5 4 3 4 5 5 4 4 5 4 5
11 12 12 12 12 12 13 12 13 13 14 13 9 8 7 7 8 8 8 9 11 10 9 9 8 7 7 6 6 6 6 5 5 4 3 3 3 4 4 4 4 4 4
10 12 12 12 12 11 11 11 12 12 13 13 12 14 11 10 10 9 9 9 11 11 11 10 8 7 7 6 8 7 6 6 5 5 4 3 2 2 3 5 5 5 5
9 11 12 12 11 11 11 11 12 12 13 14 13 13 12 10 9 9 10 10 10 10 11 10 9 8 7 7 6 6 7 6 6 5 5 4 3 5 4 2 3 5 5
9 9 10 10 10 10 10 11 11 12 12 13 13 13 13 12 11 11 11 11 9 9 10 10 9 9 7 7 7 6 7 6 6 5 5 5 4 5 4 3 4 4 4
9 10 10 10 11 11 11 11 11 11 12 13 13 13 13 13 13 12 11 10 9 9 10 10 8 8 7 7 7 7 6 7 6 7 6 6 5 5 4 4 4 3 3
9 10 10 10 10 11 10 10 11 11 11 12 12 12 12 11 10 11 10 10 8 8 9 9 9 9 9 8 7 7 7 6 7 8 6 6 6 5 5 5 5 5 5
9 9 9 9 10 10 10 10 10 10 11 11 11 11 11 10 10 10 10 9 8 8 10 10 9 9 9 8 7 6 6 6 7 7 8 8 6 6 6 5 6 6 6
9 9 8 8 8 8 9 9 10 9 9 10 10 9 10 10 9 9 10 9 9 8 10 10 10 9 9 8 8 7 7 7 7 6 6 7 6 6 6 6 6 6 7
9 8 8 8 7 7 8 8 9 9 8 9 9 9 9 9 9 8 9 9 9 9 10 10 10 10 9 8 8 8 8 9 8 7 7 8 7 6 6 6 6 7 6
9 9 8 8 7 7 7 8 8 9 9 9 9 9 9 9 9 9 9 9 9 9 10 9 9 9 9 9 9 9 8 9 9 8 8 8 7 7 7 6 7 6 6
9 9 8 7 7 6 6 7 7 8 9 9 9 9 8 8 8 9 9 9 9 9 9 9 9 9 9 8 8 8 8 8 8 8 8 8 8 8 7 7 7 7 7
9 8 7 7 6 6 6 6 6 7 7 8 9 9 9 8 8 8 8 8 8 8 8 9 8 8 8 8 8 8 8 7 7 7 7 7 7 8 8 7 7 7 7
9 8 7 7 6 6 5 5 6 6 7 7 8 8 8 8 7 7 7 7 7 7 7 7 7 7 7 7 7 8 7 6 5 5 5 5 3 2 3 5 5 6 6
8 7 7 7 6 6 6 6 6 6 7 7 7 7 7 7 7 7 6 6 6 7 7 7 7 6 5 4 5 6 6 5 5 5 4 4 3 2 2 2 3 4 4
7 6 6 5 5 5 5 6 6 6 7 7 7 7 7 7 6 6 6 6 6 6 6 6 6 6 4 6 6 5 4 4 4 4 3 3 2 3 3 3 3 0 3
6 5 4 4 4 4 5 5 5 6 6 6 6 6 7 7 7 6 6 6 5 5 5 5 5 4 4 5 6 6 5 4 3 2 2 2 1 1 2 2 2 2 1
5 4 4 4 4 4 4 5 5 6 6 6 6 6 7 7 7 7 6 6 6 5 4 4 4 4 4 4 4 5 5 4 4 4 3 2 2 4 2 2 2 2 2
5 5 4 5 4 3 4 5 5 6 6 5 5 5 6 6 6 6 6 6 6 6 6 6 5 6 5 6 5 4 4 5 5 5 6 9 7 7 5 2 2 2 1
6 5 5 5 4 3 4 4 4 4 4 5 5 5 5 6 6 6 6 6 7 8 8 8 8 8 7 8 8 5 3 5 5 5 5 6 10 11 10 7 5 3 2
6 6 5 5 4 4 4 5 4 3 4 5 6 6 6 6 6 8 7 7 8 9 9 9 8 7 7 8 9 10 8 6 7 6 6 7 11 13 11 8 6 4 2
6 5 6 6 5 5 5 6 5 5 6 7 7 7 8 8 8 8 8 7 6 7 7 7 7 7 7 8 13 13 13 12 9 9 12 10 8 9 9 9 6 4 4
6 6 6 6 6 6 6 6 6 6 8 9 9 9 10 10 9 7 6 6 6 7 7 8 8 8 7 6 6 8 10 13 12 11 11 10 9 8 7 6 6 7 7
6 6 7 7 7 7 7 7 7 9 10 11 10 10 11 12 12 12 11 9 9 8 8 8 8 8 8 7 9 7 7 7 7 7 6 6 6 7 7 7 7 7 6
7 7 8 8 8 8 8 8 7 9 11 11 11 10 10 11 11 13 15 21 18 21 20 16 12 11 12 12 14 14 13 10 4 5 7 7 7 7 6 6 6 7 7
Wind_Direction
177 174 175 177 178 179 182 185 186 182 180 183 185 186 188 189 192 195 192 194 195 190 202 204 183 203 193 195 189 193 183 196 185 188 184 184 190 181 179 194 197 187 191
170 171 173 175 179 181 185 186 186 183 184 185 187 189 188 192 192 194 190 197 196 195 199 209 199 199 193 194 197 207 212 193 192 217 214 200 185 200 196 192 200 204 195
176 174 175 178 182 186 188 189 187 186 187 184 182 181 182 191 192 195 193 197 199 199 204 200 209 199 207 194 201 204 216 211 203 223 236 238 214 177 178 201 204 209 215
178 175 177 180 183 187 186 187 190 187 185 185 188 188 193 196 197 195 191 194 200 202 201 200 202 208 214 196 208 205 217 222 213 201 237 277 336 267 180 191 188 200 216
178 176 177 176 178 182 183 184 187 188 186 188 191 195 201 200 196 196 193 197 196 203 203 199 200 203 214 211 218 198 223 221 230 219 209 215 223 248 262 206 190 195 202
168 169 168 168 171 175 179 182 184 189 187 188 192 199 202 200 196 196 195 198 195 199 200 200 201 204 211 207 211 212 213 228 233 241 232 224 226 234 238 235 222 212 194
164 164 164 167 170 175 179 180 183 187 188 192 196 201 204 202 200 198 198 199 195 195 194 200 200 204 205 207 208 209 221 217 221 230 236 239 240 246 250 255 247 235 213
160 164 166 168 173 175 177 178 183 186 188 194 197 200 203 202 200 200 198 196 199 200 191 197 199 203 203 205 205 213 212 216 222 229 235 241 238 239 245 253 259 249 236
158 160 164 170 174 175 176 177 178 181 186 190 190 193 198 200 197 195 199 198 198 197 191 195 197 197 197 199 202 216 216 218 224 224 220 232 229 234 241 246 255 265 264
155 156 162 166 169 172 173 175 174 178 184 187 187 188 192 193 192 191 195 198 198 198 194 195 195 196 196 199 209 214 215 221 225 233 234 235 234 230 236 241 245 255 266
156 155 157 157 159 162 165 172 172 174 178 182 186 185 186 187 188 191 196 197 197 196 198 199 197 198 200 201 208 221 212 217 220 224 226 229 244 240 236 234 239 241 247
151 149 150 150 155 161 164 168 173 176 178 180 182 183 185 184 184 189 195 195 195 198 200 201 201 203 204 204 208 216 215 216 218 221 227 232 230 230 247 243 241 241 246
150 149 149 152 153 157 161 166 173 175 176 174 179 181 185 185 188 191 194 194 196 200 202 202 203 206 207 206 208 211 215 219 221 222 224 231 235 232 235 237 242 241 238
154 154 153 154 153 156 159 166 170 172 175 175 177 182 187 189 190 191 192 193 194 197 199 200 204 207 208 208 208 207 210 216 223 226 227 230 235 236 238 238 244 249 250
156 157 156 153 158 159 163 173 173 174 177 179 182 186 186 187 188 188 189 188 190 194 195 197 202 206 207 207 207 206 204 207 213 220 225 227 228 281 267 263 255 249 248
153 152 153 156 163 168 172 174 177 176 176 183 187 186 185 185 187 187 183 182 186 189 187 192 193 194 202 174 185 205 201 200 207 212 212 204 177 154 141 40 11 340 276
141 145 148 155 162 171 176 178 178 174 177 186 189 185 184 182 182 180 178 183 186 186 183 185 186 187 179 152 163 181 191 190 195 203 207 219 188 175 191 168 169 30 1
129 125 129 140 151 160 171 176 175 175 175 180 182 178 181 180 177 177 176 174 172 168 167 170 173 172 154 144 160 165 173 169 158 162 186 184 155 169 190 177 149 120 65
115 112 114 123 133 145 158 163 165 166 167 175 178 179 177 175 171 170 165 159 154 149 152 150 145 143 119 112 140 161 153 134 114 95 74 84 101 55 65 137 138 123 109
103 103 105 107 111 123 143 152 153 158 165 169 172 171 167 165 163 156 146 141 134 128 118 103 95 95 89 85 95 129 135 126 115 95 79 62 62 54 46 115 123 117 84
96 95 96 95 94 99 121 133 137 145 152 150 148 145 143 143 140 135 131 131 126 118 111 103 91 84 76 78 75 84 113 117 112 100 85 68 65 63 55 56 66 48 357
96 97 93 84 77 83 100 112 114 116 124 129 130 131 130 130 127 121 119 120 123 118 111 104 95 84 75 71 76 76 75 82 100 95 91 86 81 76 66 65 50 24 357
93 94 92 81 69 69 86 95 93 101 110 112 110 110 105 102 107 112 117 118 120 118 115 112 104 92 83 82 84 86 82 78 89 90 92 91 91 97 84 67 43 33 48
93 95 94 85 71 66 76 86 94 102 105 104 102 100 99 95 89 90 94 100 109 116 115 111 106 99 88 81 91 100 101 103 101 101 104 102 87 86 86 84 64 59 52
87 89 90 87 79 75 74 79 94 105 103 100 99 96 91 90 82 73 60 68 62 75 94 100 102 102 95 72 67 86 93 96 100 108 103 93 87 77 69 64 57 51 50
95 92 91 89 85 82 79 80 92 107 109 104 99 97 97 96 96 94 80 61 66 63 63 63 81 82 86 88 81 78 77 77 79 96 93 83 75 68 63 61 57 51 42
Height
1503 1505 1506 1508 1510 1513 1516 1519 1523 1527 1531 1535 1539 1542 1546 1550 1553 1556 1559 1561 1564 1566 1569 1572 1573 1575 1577 1578 1580 1581 1582 1584 1585 1586 1587 1588 1588 1589 1589 1590 1591 1591 1592
1501 1503 1505 1507 1508 1510 1513 1517 1520 1524 1528 1532 1536 1540 1544 1548 1551 1554 1556 1559 1562 1565 1568 1569 1572 1573 1575 1577 1578 1579 1582 1583 1584 1585 1586 1587 1588 1587 1588 1589 1589 1590 1590
1499 1502 1504 1505 1507 1509 1511 1515 1518 1522 1526 1530 1534 1538 1542 1545 1549 1551 1554 1557 1560 1563 1565 1567 1570 1572 1574 1576 1577 1578 1580 1582 1583 1584 1585 1585 1585 1586 1587 1587 1588 1588 1589
1497 1500 1502 1504 1506 1508 1510 1513 1516 1520 1523 1527 1531 1535 1538 1541 1545 1549 1552 1555 1558 1561 1564 1566 1568 1570 1573 1574 1576 1577 1579 1580 1582 1582 1583 1584 1584 1585 1585 1586 1586 1586 1587
1495 1498 1501 1503 1505 1507 1509 1512 1514 1517 1521 1524 1528 1532 1535 1539 1543 1547 1549 1552 1555 1558 1561 1564 1566 1568 1571 1572 1574 1575 1577 1578 1580 1581 1582 1583 1583 1584 1584 1584 1585 1586 1586
1494 1497 1500 1502 1504 1506 1508 1510 1512 1515 1518 1521 1525 1528 1532 1535 1539 1543 1546 1549 1553 1556 1559 1561 1564 1566 1568 1570 1571 1573 1574 1576 1577 1579 1580 1581 1582 1583 1583 1583 1584 1584 1584
1493 1496 1498 1500 1503 1505 1507 1509 1511 1513 1516 1519 1522 1525 1529 1532 1536 1539 1543 1547 1550 1553 1555 1559 1561 1564 1566 1567 1569 1571 1573 1574 1575 1576 1578 1579 1580 1581 1582 1582 1582 1582 1583
1492 1495 1497 1499 1502 1504 1506 1507 1509 1511 1514 1516 1519 1523 1526 1530 1533 1536 1540 1543 1547 1551 1553 1556 1558 1561 1563 1565 1567 1569 1570 1571 1572 1574 1575 1576 1578 1579 1580 1580 1581 1580 1581
1492 1494 1497 1499 1501 1503 1504 1506 1508 1510 1512 1514 1517 1520 1523 1527 1530 1533 1537 1541 1544 1548 1550 1553 1555 1558 1560 1562 1564 1566 1567 1569 1570 1571 1572 1573 1575 1576 1577 1578 1578 1579 1578
1491 1494 1497 1499 1501 1502 1504 1505 1507 1509 1511 1513 1516 1518 1521 1524 1528 1531 1535 1538 1541 1545 1547 1550 1553 1555 1557 1559 1561 1563 1564 1566 1567 1568 1569 1570 1572 1573 1574 1575 1575 1576 1577
1491 1494 1496 1498 1500 1502 1503 1505 1507 1509 1510 1512 1515 1517 1520 1523 1526 1529 1533 1536 1539 1542 1545 1547 1550 1552 1554 1556 1557 1560 1561 1562 1564 1565 1566 1567 1568 1570 1571 1572 1572 1573 1574
1491 1494 1496 1498 1499 1501 1503 1504 1506 1508 1510 1512 1514 1516 1519 1522 1525 1528 1531 1534 1537 1540 1542 1545 1547 1549 1551 1553 1554 1556 1558 1559 1560 1561 1562 1564 1565 1565 1567 1568 1569 1569 1570
1491 1493 1496 1497 1499 1501 1503 1504 1506 1507 1509 1511 1513 1516 1518 1521 1523 1526 1529 1532 1535 1537 1539 1542 1544 1546 1548 1549 1551 1553 1554 1555 1557 1558 1559 1560 1561 1562 1563 1564 1565 1566 1566
1490 1493 1495 1497 1499 1501 1502 1504 1505 1507 1509 1511 1513 1515 1517 1519 1522 1525 1527 1530 1532 1534 1536 1539 1541 1543 1544 1546 1548 1549 1551 1552 1553 1554 1555 1556 1558 1559 1560 1561 1561 1562 1562
1490 1492 1494 1496 1498 1500 1501 1503 1505 1506 1508 1509 1511 1514 1516 1518 1521 1523 1525 1527 1529 1531 1534 1536 1538 1540 1542 1543 1545 1546 1548 1549 1550 1551 1552 1553 1554 1555 1556 1558 1558 1559 1559
1489 1492 1494 1495 1497 1499 1500 1502 1504 1505 1506 1508 1510 1512 1514 1516 1519 1521 1523 1525 1527 1529 1531 1533 1535 1537 1538 1540 1542 1543 1545 1546 1547 1548 1549 1550 1551 1551 1552 1553 1554 1555 1555
1489 1491 1493 1494 1496 1497 1499 1500 1502 1503 1505 1506 1508 1510 1512 1514 1516 1518 1520 1522 1524 1526 1528 1530 1532 1533 1535 1537 1538 1540 1542 1543 1544 1545 1546 1548 1548 1548 1549 1550 1550 1551 1551
1489 1490 1492 1493 1494 1496 1498 1499 1500 1501 1503 1504 1506 1507 1509 1511 1513 1515 1517 1519 1521 1523 1525 1527 1529 1531 1532 1534 1535 1537 1538 1540 1541 1542 1543 1544 1545 1545 1546 1547 1547 1548 1548
1488 1489 1491 1492 1493 1494 1496 1497 1498 1499 1501 1502 1503 1505 1507 1509 1511 1512 1514 1516 1518 1520 1522 1525 1527 1528 1530 1531 1533 1534 1536 1537 1538 1539 1540 1541 1542 1542 1543 1544 1545 1545 1546
1487 1488 1490 1491 1492 1493 1494 1495 1496 1497 1499 1500 1501 1503 1504 1506 1508 1510 1511 1513 1515 1517 1520 1523 1524 1526 1527 1529 1530 1532 1534 1535 1536 1536 1537 1538 1539 1540 1541 1542 1543 1543 1543
1487 1488 1489 1490 1491 1492 1493 1494 1494 1496 1497 1498 1499 1501 1502 1504 1506 1508 1510 1512 1514 1516 1518 1521 1523 1524 1526 1527 1528 1530 1531 1533 1534 1535 1536 1536 1537 1538 1539 1540 1540 1540 1540
1487 1488 1489 1489 1490 1491 1492 1492 1493 1494 1495 1496 1498 1499 1501 1503 1505 1507 1509 1511 1514 1515 1518 1520 1522 1524 1525 1526 1527 1529 1530 1531 1533 1534 1535 1535 1536 1537 1538 1538 1538 1539 1539
1487 1488 1489 1489 1490 1491 1491 1491 1492 1493 1494 1496 1497 1498 1500 1502 1504 1506 1509 1511 1514 1516 1517 1520 1522 1524 1525 1526 1527 1528 1529 1531 1532 1533 1534 1535 1536 1536 1537 1537 1537 1538 1539
1487 1488 1489 1490 1490 1490 1491 1491 1492 1493 1494 1496 1497 1499 1500 1502 1504 1507 1509 1512 1514 1516 1518 1520 1522 1524 1526 1527 1528 1528 1530 1531 1532 1533 1534 1535 1536 1537 1537 1537 1538 1538 1537
1488 1489 1490 1490 1491 1491 1491 1492 1493 1494 1495 1496 1498 1500 1501 1502 1505 1507 1510 1513 1514 1516 1519 1522 1524 1525 1526 1528 1529 1530 1531 1532 1533 1535 1537 1538 1539 1539 1539 1539 1538 1538 1538
1489 1490 1491 1491 1492 1492 1493 1493 1494 1495 1496 1498 1500 1502 1503 1505 1507 1509 1512 1515 1517 1519 1521 1523 1525 1527 1529 1530 1531 1532 1533 1534 1535 1537 1539 1540 1540 1541 1541 1541 1540 1540 1539